Location: Boiro
(42.6475°N, 8.8834°W)
Time: 06:59:02
(UTC+02:00)

FALCONSAT-6 - Pass Details

Date: 10 July 2022
Orbit: 555 x 585 km, 97.6° (Epoch: 10 August)

Event Time Altitude Azimuth Distance (km) Brightness Sun altitude
Exits shadow 22:55:00 - 107° (ESE) 2,151 ? -6.9°
Reaches altitude 10° 22:55:59 10° 97° (E) 1,901 ? -7.1°
Maximum altitude 22:58:14 15° 64° (ENE) 1,628 ? -7.4°
Drops below altitude 10° 23:00:28 10° 31° (NNE) 1,901 ? -7.7°
Sets 23:03:27 0° 7° (N) 2,800 ? -8.1°
